[[{"header":{"parameterUnit":"m.s-1","parameterCategory":1,"la1":30.2991,"la2":30.254,"lo1":-89.0895,"lo2":-89.0444,"dy":0.0017,"dx":0.0017,"nx":28,"ny":28,"refTime":"2026-02-05T03:00:00:Z","depth":0,"parameterNumber":2,"parameterNumberName":"U-component_of_WINDS"},"data":[0,0,0,0,0,0,0,0,0,0,0,0,0,0,0,0,0,0,0,0,0,0,0,0,0,0,0,0,0,0,0,0,0,0,0,0,0,0,0,0,0,0,0,0,0,0,0,0,0,0,0,0,0,0,0,0,0,0,4.7784,4.7785,0,4.7858,4.7859,4.786,4.7829,4.7827,4.7825,4.7824,4.7899,4.7903,4.7906,0,0,0,0,0,0,0,0,0,0,0,0,0,4.7618,4.7621,4.7784,4.7785,4.7786,4.7858,4.7859,4.786,4.7829,4.7827,4.7825,4.7823,4.7898,4.7902,4.7907,0,0,0,0,0,0,0,0,0,0,0,0,0,4.7691,4.7622,4.7784,4.7779,4.778,4.7858,4.7859,4.786,4.783,4.7827,4.7824,4.7822,4.7896,4.7902,4.7907,4.7994,0,0,4.7924,4.7926,0,0,0,0,0,0,0,0,4.7687,4.7697,4.7779,4.778,4.778,4.7832,4.7828,4.7905,4.783,4.7811,4.7824,4.782,4.7879,4.7886,4.7905,4.7998,4.8001,4.7924,4.7928,4.793,4.7932,0,0,0,0,0,0,0,4.7682,4.7694,4.7814,4.778,4.7781,4.7774,4.7782,4.7843,4.7859,4.7812,4.781,4.7819,4.7879,4.79,4.7907,4.8002,4.7924,4.7929,4.7933,4.7935,4.8174,4.8176,0,0,0,0,0,0,4.7677,4.769,4.7811,4.7816,4.7726,4.7779,4.7788,4.7818,4.7858,4.7862,4.7821,4.7818,4.7892,4.79,4.7909,4.8016,4.793,4.7935,4.7938,4.8171,4.8174,4.8178,0,0,0,0,0,0,4.7673,4.7688,4.7808,4.7752,4.7767,4.7785,4.7819,4.7821,4.7842,4.7865,4.7868,4.784,4.789,4.7902,4.7974,4.8018,4.7938,4.7943,4.8167,4.8172,4.8176,4.8229,0,0,0,0,0,0,4.7669,4.7687,4.7719,4.7753,4.777,4.7871,4.7822,4.7824,4.7852,4.7847,4.7883,4.7887,4.7889,4.7966,4.798,4.8024,4.7947,4.8163,4.8169,4.8174,4.8223,4.8235,4.8244,0,0,0,0,0,4.7663,4.7731,4.7721,4.7736,4.7811,4.7874,4.7884,4.7885,4.7855,4.7889,4.7904,4.7886,4.8011,4.7974,4.7989,4.8036,4.816,4.8167,4.8174,4.8219,4.8232,4.8244,0,0,0,0,0,0,4.7701,4.7735,4.7725,4.7806,4.7837,4.7869,4.7911,4.7899,4.7939,4.7934,4.7933,4.7942,4.8017,4.8034,4.7991,4.8124,4.8081,4.8092,4.811,4.8124,4.8134,4.8129,4.7952,0,0,0,0,0,4.7719,4.7766,4.7794,4.7862,4.7879,4.7892,4.792,4.7918,4.7951,4.7964,4.7984,4.8017,4.8064,4.8094,4.8139,4.8226,4.8234,4.8266,4.8276,4.8285,4.8294,4.8343,4.8358,4.82,4.82,4.82,0,0,4.7756,4.778,4.781,4.7871,4.7895,4.7945,4.7904,4.7958,4.7995,4.7972,4.8042,4.8059,4.8095,4.8176,4.8213,4.8192,4.834,4.8294,4.83,4.8304,4.8352,4.8367,4.838,4.8205,4.8204,4.8203,0,0,4.7849,4.7872,4.7933,4.7959,4.7997,4.8006,4.8021,4.8054,4.8065,4.8135,4.812,4.8165,4.8245,4.8273,4.8297,4.8405,4.839,4.8419,4.8474,4.8523,4.8535,4.8546,4.8586,4.8601,4.8428,4.8428,4.8428,0,4.7891,4.7965,4.7966,4.8022,4.805,4.8032,4.8095,4.812,4.817,4.819,4.8167,4.8269,4.8292,4.8381,4.8407,4.8427,4.8445,4.8415,4.8533,4.8545,4.8555,4.8593,4.8608,4.8431,4.8431,4.8431,4.843,0,4.8015,4.8068,4.8112,4.8163,4.8196,4.8255,4.8265,4.8299,4.8295,4.8307,4.8381,4.8409,4.8459,4.848,4.8476,4.8569,4.8555,4.8533,4.849,4.8573,4.8609,4.8624,4.8436,4.8435,4.8434,4.8433,0,0,4.8133,4.8185,4.8201,4.8225,4.8267,4.8308,4.8367,4.8417,4.8447,4.8483,4.8534,4.8604,4.8584,4.8612,4.8612,4.8654,4.874,4.8627,4.8628,4.8648,4.8846,4.8864,4.888,4.8731,4.8734,4.8736,4.8844,0,4.8231,4.8335,4.8339,4.8434,4.8484,4.8469,4.8521,4.8553,4.8566,4.8611,4.8626,4.8676,4.8645,4.8662,4.8704,4.8721,4.878,4.8713,4.8779,4.8782,4.8771,4.8899,4.8917,4.9017,4.8858,4.886,4.8862,0,4.8358,4.84,4.8501,4.8538,4.8559,4.8605,4.8653,4.8696,4.8732,4.8739,4.8772,4.8767,4.8829,4.8785,4.8871,4.8826,4.8853,4.8866,4.887,4.8877,4.8827,4.891,4.9048,4.9064,4.8883,4.8882,4.888,0,4.8436,4.8517,4.8588,4.8609,4.8654,4.8687,4.8708,4.8742,4.8773,4.8815,4.8835,4.8884,4.8911,4.8949,4.8957,4.8924,4.9045,4.9001,4.9054,4.9054,4.9079,4.9078,4.9226,4.9096,4.9096,4.9096,4.9095,0,4.8545,4.8608,4.8624,4.8668,4.8739,4.8743,4.8813,4.8831,4.8862,4.891,4.89,4.8945,4.8953,4.9001,4.9008,4.908,4.9091,4.91,4.9101,4.9101,4.91,4.9119,4.9113,4.91,4.9099,4.9098,4.9097,0,4.8644,4.8657,4.8734,4.8771,4.8782,4.8833,4.8864,4.8907,4.892,4.8982,4.8996,4.9017,4.9073,4.9085,4.9151,4.9156,4.9242,4.9236,4.923,4.9229,4.9282,4.9277,4.9447,4.9471,4.9325,4.9327,4.9328,0,4.8713,4.8761,4.8804,4.8835,4.8858,4.8909,4.8941,4.8947,4.8981,4.9029,4.9066,4.9121,4.9166,4.9256,4.9277,4.9329,4.9324,4.9381,4.9332,4.9331,4.9327,4.9324,4.933,4.939,4.9391,4.9393,4.9394,0,4.8835,4.884,4.8886,4.8936,4.8975,4.9015,4.9052,4.9079,4.9091,4.913,4.9187,4.9222,4.9291,4.9346,4.9398,4.9419,4.941,4.9409,4.9424,4.9425,4.942,4.9425,4.9256,4.9405,4.9404,4.9403,4.9402,4.9402,4.8922,4.8965,4.9002,4.9055,4.9084,4.912,4.9163,4.9183,4.9231,4.9287,4.9288,4.9352,4.939,4.9459,4.9484,4.9534,4.9517,4.9538,4.9544,4.9549,4.9555,4.9412,4.9543,4.9543,4.9543,4.9542,4.9542,0,4.9044,4.9068,4.9117,4.9171,4.9213,4.92,4.9242,4.9278,4.9334,4.937,4.9415,4.9482,4.9537,4.9563,4.9617,4.9653,4.965,4.9667,4.9665,4.967,4.9566,4.9548,4.9669,4.9669,4.9669,4.9669,4.9669,4.9669,4.9113,4.9186,4.9195,4.9283,4.9307,4.9369,4.9394,4.9428,4.9457,4.9533,4.9579,4.9596,4.9629,4.9686,4.9736,4.9743,4.9764,4.9783,4.9788,4.969,4.9677,4.9665,4.9648,4.9788,4.9788,4.9888,4.9889,4.9889]},{"header":{"parameterUnit":"m.s-1","parameterCategory":1,"la1":30.2991,"la2":30.254,"lo1":-89.0895,"lo2":-89.0444,"dy":0.0017,"dx":0.0017,"nx":28,"ny":28,"refTime":"2026-02-05T03:00:00:Z","depth":0,"parameterNumber":3,"parameterNumberName":"V-component_of_WINDS"},"data":[0,0,0,0,0,0,0,0,0,0,0,0,0,0,0,0,0,0,0,0,0,0,0,0,0,0,0,0,0,0,0,0,0,0,0,0,0,0,0,0,0,0,0,0,0,0,0,0,0,0,0,0,0,0,0,0,0,0,-4.934,-4.9342,0,-4.9459,-4.946,-4.9461,-4.948,-4.9479,-4.9478,-4.9477,-4.9595,-4.9599,-4.9603,0,0,0,0,0,0,0,0,0,0,0,0,0,-4.913,-4.9134,-4.934,-4.9342,-4.9343,-4.9458,-4.946,-4.9462,-4.9481,-4.9479,-4.9478,-4.9477,-4.9594,-4.9598,-4.9603,0,0,0,0,0,0,0,0,0,0,0,0,0,-4.9232,-4.9135,-4.934,-4.9367,-4.937,-4.9458,-4.946,-4.9462,-4.9481,-4.9479,-4.9478,-4.9476,-4.9592,-4.9598,-4.9604,-4.9672,0,0,-4.9623,-4.9625,0,0,0,0,0,0,0,0,-4.9226,-4.924,-4.9361,-4.9365,-4.9369,-4.9453,-4.9429,-4.9532,-4.9481,-4.9439,-4.9477,-4.9476,-4.9549,-4.9558,-4.9584,-4.9678,-4.9683,-4.9623,-4.9627,-4.963,-4.9631,0,0,0,0,0,0,0,-4.9219,-4.9235,-4.9387,-4.9363,-4.9368,-4.9372,-4.9385,-4.9449,-4.9501,-4.9442,-4.9444,-4.9458,-4.9551,-4.9578,-4.9587,-4.9685,-4.9623,-4.9628,-4.9632,-4.9635,-4.9843,-4.9845,0,0,0,0,0,0,-4.9207,-4.9229,-4.9383,-4.939,-4.9292,-4.9377,-4.9392,-4.9428,-4.95,-4.951,-4.9459,-4.9458,-4.9568,-4.9579,-4.9591,-4.9677,-4.963,-4.9635,-4.9639,-4.9842,-4.9844,-4.9846,0,0,0,0,0,0,-4.9203,-4.9221,-4.9378,-4.931,-4.9331,-4.9383,-4.9423,-4.9431,-4.9458,-4.9513,-4.9522,-4.9477,-4.9567,-4.9582,-4.9653,-4.9682,-4.9638,-4.9644,-4.9839,-4.9842,-4.9845,-4.985,0,0,0,0,0,0,-4.9197,-4.9219,-4.9246,-4.9311,-4.9334,-4.9439,-4.9425,-4.9434,-4.9469,-4.9469,-4.9533,-4.9541,-4.9567,-4.9644,-4.9659,-4.9689,-4.9648,-4.9837,-4.9841,-4.9844,-4.9847,-4.9853,-4.9857,0,0,0,0,0,-4.9189,-4.9241,-4.9247,-4.9266,-4.9369,-4.944,-4.9454,-4.9483,-4.9471,-4.9499,-4.9534,-4.9539,-4.9676,-4.9651,-4.9668,-4.9701,-4.9835,-4.984,-4.9844,-4.9845,-4.9852,-4.9857,0,0,0,0,0,0,-4.9176,-4.925,-4.9257,-4.9332,-4.938,-4.9443,-4.9478,-4.9489,-4.954,-4.9538,-4.9572,-4.9586,-4.9655,-4.9685,-4.9655,-4.9772,-4.9755,-4.9763,-4.975,-4.9756,-4.9761,-4.9752,-4.9653,0,0,0,0,0,-4.9183,-4.9236,-4.9297,-4.9357,-4.9381,-4.9426,-4.9458,-4.9477,-4.9527,-4.9547,-4.9588,-4.9636,-4.969,-4.9725,-4.9777,-4.9852,-4.9867,-4.9883,-4.9888,-4.9892,-4.9898,-4.9942,-4.995,-4.986,-4.986,-4.986,0,0,-4.9195,-4.9242,-4.9273,-4.9355,-4.9395,-4.9449,-4.9442,-4.9499,-4.9539,-4.9555,-4.9625,-4.9657,-4.9713,-4.9787,-4.9821,-4.9814,-4.9927,-4.9897,-4.99,-4.9904,-4.9947,-4.9956,-4.9963,-4.9863,-4.9862,-4.9862,0,0,-4.9246,-4.9287,-4.9342,-4.9383,-4.9443,-4.9473,-4.9487,-4.955,-4.9572,-4.9643,-4.9657,-4.9705,-4.9797,-4.9837,-4.987,-4.9939,-4.9947,-4.9955,-4.998,-5.0022,-5.003,-5.0036,-5.0062,-5.0071,-4.9962,-4.9962,-4.9962,0,-4.9254,-4.9337,-4.9369,-4.9427,-4.9463,-4.9482,-4.9539,-4.9576,-4.965,-4.9675,-4.9666,-4.9784,-4.9823,-4.9907,-4.9925,-4.995,-4.9967,-4.9948,-5.0026,-5.0033,-5.004,-5.0065,-5.0074,-4.9962,-4.9962,-4.9962,-4.9962,0,-4.9344,-4.9401,-4.9439,-4.9512,-4.9553,-4.9609,-4.9651,-4.9688,-4.9704,-4.9735,-4.9808,-4.9856,-4.992,-4.9941,-4.9956,-5.0028,-5.0022,-5.0019,-5.0003,-5.0048,-5.0073,-5.0083,-4.9964,-4.9963,-4.9963,-4.9963,0,0,-4.9388,-4.9482,-4.9495,-4.953,-4.9599,-4.9644,-4.9702,-4.9766,-4.9798,-4.9849,-4.9899,-4.9978,-4.9977,-5.0013,-5.0034,-5.0071,-5.0125,-5.0064,-5.0066,-5.0074,-5.0209,-5.0211,-5.0221,-5.0131,-5.0133,-5.0134,-5.0205,0,-4.9448,-4.9554,-4.9586,-4.9674,-4.9728,-4.9749,-4.98,-4.9848,-4.9879,-4.9929,-4.9963,-5.002,-5.0013,-5.0036,-5.0073,-5.011,-5.0152,-5.0106,-5.0177,-5.018,-5.0163,-5.0234,-5.0236,-5.03,-5.0214,-5.0216,-5.0217,0,-4.9532,-4.9587,-4.9681,-4.9746,-4.977,-4.9815,-4.9878,-4.9926,-4.9981,-5.0002,-5.0045,-5.0063,-5.0124,-5.0105,-5.0191,-5.0159,-5.019,-5.0213,-5.0216,-5.0224,-5.0201,-5.0244,-5.0321,-5.0331,-5.0232,-5.0231,-5.023,0,-4.9556,-4.9654,-4.9723,-4.9752,-4.983,-4.9861,-4.9895,-4.9949,-4.9987,-5.0041,-5.0066,-5.0126,-5.016,-5.0206,-5.024,-5.0223,-5.0324,-5.0307,-5.0343,-5.0342,-5.0363,-5.0361,-5.0446,-5.0382,-5.0382,-5.0382,-5.0382,0,-4.962,-4.9677,-4.9736,-4.9779,-4.9844,-4.9881,-4.9944,-4.9978,-5.0027,-5.0077,-5.0098,-5.0144,-5.0186,-5.0239,-5.0266,-5.0334,-5.0348,-5.0366,-5.0373,-5.0365,-5.0363,-5.0386,-5.0382,-5.0385,-5.0384,-5.0384,-5.0383,0,-4.9658,-4.97,-4.9777,-4.9845,-4.9864,-4.9909,-4.9967,-5.001,-5.0043,-5.0106,-5.0123,-5.0174,-5.0237,-5.0276,-5.0355,-5.0373,-5.0449,-5.0453,-5.043,-5.0433,-5.0468,-5.0464,-5.0571,-5.0587,-5.0512,-5.0512,-5.0513,0,-4.9696,-4.9741,-4.9815,-4.9851,-4.9885,-4.9942,-4.9981,-5.002,-5.0059,-5.0128,-5.0163,-5.0227,-5.0281,-5.038,-5.0424,-5.0485,-5.0492,-5.0525,-5.0501,-5.0492,-5.0494,-5.0491,-5.0496,-5.0529,-5.053,-5.053,-5.053,0,-4.9759,-4.9779,-4.9835,-4.9899,-4.9945,-4.9997,-5.0049,-5.0077,-5.0124,-5.0168,-5.0234,-5.0275,-5.0358,-5.0422,-5.0488,-5.0522,-5.0535,-5.0538,-5.055,-5.0542,-5.0527,-5.0537,-5.0442,-5.0535,-5.0535,-5.0534,-5.0534,-5.0534,-4.9799,-4.9841,-4.9901,-4.9963,-5.0006,-5.0055,-5.0099,-5.0139,-5.0195,-5.0266,-5.0285,-5.0354,-5.041,-5.05,-5.0536,-5.0591,-5.0586,-5.0602,-5.0607,-5.061,-5.0612,-5.0519,-5.0602,-5.0602,-5.0602,-5.0602,-5.0602,0,-4.9865,-4.9905,-4.9962,-5.0035,-5.0085,-5.0094,-5.0153,-5.0193,-5.0254,-5.0306,-5.036,-5.0436,-5.0499,-5.0549,-5.0614,-5.0648,-5.0656,-5.0664,-5.0662,-5.067,-5.0612,-5.0596,-5.0657,-5.0657,-5.0657,-5.0657,-5.0657,-5.0657,-4.9905,-4.9977,-5.0003,-5.0097,-5.0137,-5.0206,-5.0238,-5.0284,-5.0326,-5.0411,-5.0464,-5.0497,-5.0549,-5.0619,-5.0677,-5.069,-5.0714,-5.0721,-5.0735,-5.068,-5.0674,-5.0668,-5.0653,-5.0725,-5.0725,-5.0789,-5.079,-5.079]}]]